THORAD DELTA 1 DEB

Satellite information

Favourite Embed

Satellite Type and Status

DEBRISIN ORBIT

Key statistics

Satellite THORAD DELTA 1 DEB at a glance.

Uptime

18561

Days in orbit

Revolutions

≈ 12.1

Per day

Orbit

SSO

Sun Synchronous Orbit

Inclination

101.0

Latest

Satellite identification and parameters

Extended collection of information and parameters for THORAD DELTA 1 DEB.

Object identification

Identified? True

Debris? True

Object name: THORAD DELTA 1 DEB

International designator: 1974-089DM

Object number (NORAD): 8785

Object ID (CCSDS): 8785

Country: UNITED STATES OF AMERICA (US)

Current information (Y/N): Y

RCS size: SMALL

Orbital parameters

Period: 118.725 minutes

Inclination: 100.9843 deg

SMA: 8001.805 km

Apoapsis: 1844.912 km

Periapsis: 1402.428 km

RAAN: 50.3737 deg

Eccentricy: 0.02764904

Argument of periapsis: 213.1047 deg

Mean anomaly: 324.1251 deg

Mean motion: 12.12888351 rev/day

Mean motion (dot): 0.00000229 rev/day2

B* drag term: 0.0024920039 1/REarth

Two-line elements (TLE)

Creation date: Sept. 8, 2025, 9:49 a.m.

Reference frame: TEME

Reference center: EARTH

Epoch: Sept. 8, 2025, 4:14 a.m. UTC

TLE line 0: 0 THORAD DELTA 1 DEB

TLE line 1: 1 08785U 74089DM 25251.17656134 .00000229 00000-0 24920-2 0 9996

TLE line 2: 2 08785 100.9843 50.3737 0276490 213.1047 324.1251 12.12888351 46823

Live tracking on map

Real-time ground track for satellite THORAD DELTA 1 DEB.

In-orbit conjunctions

A list of the most updated potential collisions computed for object THORAD DELTA 1 DEB.

Target Orbit TCA Probability of collision Miss distance Type
COSMOS 798 LEO 2025-06-23 00:37:20 0.0005308198 43.0 (m) PAYLOAD

Associated space launch

Meteorological satellite using radiometric imaging

THORAD DELTA 1 DEB was lifted into orbit during the mission ‘Delta 2310 | NOAA 4’, on board a Delta 2310 space rocket.

The launch took place on Nov. 15, 1974, 5:11 p.m. from Space Launch Complex 2W.

For more information about the launch, click the button.

Launch to space Delta 2310 | NOAA 4
Delta 2310 | NOAA 4

Agency: N/A

Status: Launch Successful

Launch date: Nov. 15, 1974, 5:11 p.m. UTC

Rocket: Delta 2310

Launch pad: Space Launch Complex 2W

Location: Vandenberg SFB, CA, USA

...

Latest news about this satellite

There are no fresh news available about this satellite. Check back as we update our databases every day.


Newsletter sign-up

Weekly statistics, charts and insights to help you stay on top of the space industry.